Location: Cluj-Napoca
(46.7712°N, 23.6236°E)
Time: 07:28:14
(UTC+02:00)

ISS - Pass Details

Date: 20 January 2021
Orbit: 418 x 421 km, 51.6° (Epoch: 23 January)

Event Time Altitude Azimuth Distance (km) Brightness Sun altitude
Rises 19:40:48 0° 245° (WSW) 2,364 1.2 -25.2°
Reaches altitude 10° 19:42:54 10° 246° (WSW) 1,502 -0.1 -25.6°
Enters shadow 19:44:39 28° 249° (WSW) 816 -1.8 -25.9°
